Vertical_Velocity
-8 -2 -0 1 -1 -3 -5 5 4 -1 -5 1 1 -0 1 2 1 0 1 0 -1 -2 -3 -3 -3 -4 -4 -4 -4 -3 -2 -1 -0 -0 -0 -0 0 1 3 6 8 9 7 5 2 0 -0 0 1 1 1 1 2 2 1 0 -0 0 2 4 3 1 -2 -0 3 8 10 9 10 10 11 9 6 2 -1 -2 -2 -2 -2 -2 -2 -2 -0 6 14 20
-3 -2 -1 1 -0 -4 -8 3 5 2 -5 -2 -1 0 1 1 1 1 2 1 0 -1 -3 -4 -4 -3 -3 -4 -4 -4 -4 -4 -3 -2 -1 -0 0 1 0 2 5 7 8 7 5 3 2 2 3 2 2 1 1 1 0 0 -0 -1 -1 0 1 1 -0 -1 0 3 7 6 6 7 8 9 7 5 2 0 -0 0 0 -1 -1 -2 -1 4 12 21
-2 -4 -2 1 0 -2 -6 -1 4 4 -1 -4 -3 -1 1 -0 -0 0 1 1 0 -0 -2 -3 -4 -4 -4 -3 -2 -2 -3 -4 -5 -5 -4 -2 -0 1 1 1 2 4 7 7 6 5 4 5 4 4 3 2 1 1 1 1 1 1 -0 -2 -2 -1 -0 -1 -0 1 2 3 3 3 3 4 4 4 3 2 3 3 4 3 1 -0 -0 2 8 17
-0 -5 -5 -1 -1 -2 -3 -2 -0 1 2 -2 -2 -1 1 -0 -1 -1 0 -0 -0 -1 -1 -2 -3 -4 -6 -5 -3 -2 -1 -3 -4 -6 -6 -5 -3 -1 1 1 2 3 5 5 5 4 5 6 6 5 4 3 2 1 2 3 3 3 1 -1 -3 -4 -3 -1 -1 0 0 1 2 1 0 -0 -0 -0 0 1 2 4 6 6 5 3 0 -0 2 9
1 -2 -6 -3 -4 -5 -3 -0 -1 -2 -0 -1 -1 -1 -0 -1 -2 -2 -1 0 0 -0 -1 -1 -1 -3 -5 -6 -6 -4 -2 -3 -4 -5 -6 -6 -6 -4 -2 1 3 4 4 3 3 3 4 5 6 5 5 4 3 2 2 3 2 2 2 -0 -2 -3 -4 -2 -1 -0 1 1 2 2 1 -0 -2 -3 -3 -2 -1 2 5 8 9 7 2 -1 -1 2
-0 0 -4 -3 -5 -8 -6 -2 -1 -1 -2 -3 -2 -1 -1 -2 -2 -2 -1 0 1 0 -1 -1 -1 -2 -3 -5 -6 -5 -4 -4 -5 -5 -5 -6 -7 -7 -7 -3 1 4 5 4 3 2 3 4 5 5 5 4 3 2 2 2 2 2 1 -0 -1 -2 -3 -2 -2 -1 1 1 2 3 2 1 -0 -2 -4 -5 -4 -2 1 5 9 9 4 -0 -2 -2
-3 -0 -0 -2 -6 -8 -6 -5 -3 -1 -1 -4 -5 -3 -1 -2 -1 -1 -2 -1 -0 -0 -2 -2 -1 -0 -0 -2 -3 -4 -4 -5 -5 -6 -5 -5 -6 -7 -8 -7 -4 1 4 5 4 2 1 2 3 3 4 3 2 1 1 2 2 2 1 -0 -1 -2 -2 -2 -2 -1 -0 1 2 2 2 2 1 -1 -3 -4 -5 -4 -2 1 3 5 3 -1 -2 -2
-5 -3 1 -0 -4 -7 -6 -4 -3 -1 -1 -4 -6 -6 -4 -2 -0 0 -1 -0 0 0 -1 -2 -2 0 3 3 1 -1 -3 -4 -4 -5 -5 -5 -5 -5 -6 -8 -7 -5 -0 3 4 4 2 1 1 1 2 2 2 0 -0 0 1 2 2 0 -1 -1 -1 -2 -2 -2 -1 -0 1 2 2 1 1 0 -1 -2 -3 -4 -3 -2 -2 -1 -2 -2 -2 -2
-3 -4 -3 -0 -1 -2 -4 -4 -1 1 2 -2 -5 -6 -6 -4 -2 0 2 3 2 2 3 1 -1 -1 2 5 5 3 -2 -2 -2 -3 -4 -4 -4 -4 -4 -5 -6 -6 -5 -2 1 3 3 2 1 1 1 1 1 1 -0 -0 0 1 2 1 1 -0 -1 -2 -2 -2 -1 -1 0 1 2 1 1 0 -0 -1 -2 -2 -3 -3 -3 -3 -3 -2 -2 -2
1 -0 -3 -2 -0 1 1 -4 -4 -1 7 3 -1 -4 -2 -1 -2 -2 2 4 5 6 8 5 2 -1 -2 1 5 6 2 -1 -2 -1 -0 -2 -3 -3 -4 -3 -4 -5 -6 -4 -2 0 2 2 1 1 0 1 1 1 1 -0 -0 -0 1 2 2 1 -1 -2 -2 -2 -1 -1 -0 1 1 1 0 0 0 0 -0 -1 -1 -1 -2 -2 -2 -2 -2 -2
1 1 1 -1 -2 -1 3 -2 -5 -4 5 6 3 0 2 4 2 -0 -2 -3 -0 5 11 6 3 1 1 -1 0 3 6 2 -1 -1 2 -0 -1 -2 -3 -3 -3 -4 -4 -3 -3 -2 -0 0 0 -0 -1 -0 1 1 2 1 1 0 1 2 2 1 -1 -3 -3 -3 -1 -1 -0 0 1 0 -0 -0 0 1 1 1 1 0 -0 -1 -2 -1 0 2
1 -0 0 -1 -2 -2 -0 -2 -3 -2 3 6 6 4 3 4 4 3 -0 -9 -8 -1 7 3 0 1 4 2 -0 -0 4 4 1 -1 1 0 0 -1 -2 -3 -3 -3 -2 -2 -1 -1 -1 -1 -2 -3 -2 -1 0 2 3 3 2 1 0 0 0 -0 -2 -3 -3 -3 -1 -0 0 1 1 1 0 -0 0 1 1 2 2 1 1 0 -1 0 4 7
-0 -0 -1 -2 -3 -3 -3 -3 -3 -1 3 6 7 5 1 -2 1 3 1 -8 -10 -6 0 0 -1 -1 2 5 3 1 1 1 0 -0 1 1 1 1 -0 -3 -4 -3 -1 -1 -1 -1 -1 -1 -2 -2 -1 -0 0 1 3 4 3 1 -1 -3 -3 -2 -2 -2 -2 -1 -1 -0 1 1 1 1 0 -0 0 1 2 2 2 2 1 1 0 2 6 10
-1 -0 0 -2 -3 -4 -3 -3 -2 0 2 4 5 2 -4 -6 -3 -0 -1 -6 -8 -8 -2 0 -2 -3 1 5 5 3 1 -1 -2 -1 2 1 1 1 0 -3 -4 -3 -1 -0 -2 -3 -2 0 1 -0 0 1 1 1 2 2 1 -1 -4 -5 -5 -3 -2 -0 1 1 1 1 1 2 2 2 1 0 -0 1 1 2 2 2 1 1 0 3 7 10
1 1 -1 -2 -3 -2 -2 -1 0 1 0 2 2 1 -4 -4 -4 -3 -2 -4 -7 -7 -1 -1 -4 -4 1 4 5 3 2 -1 -2 -2 -0 -1 0 2 2 -2 -4 -3 -0 -0 -3 -4 -0 3 3 1 1 2 1 0 -0 -1 -2 -3 -5 -6 -5 -4 -1 1 2 3 2 2 2 3 3 2 1 0 -0 0 1 1 2 2 1 0 0 3 7 9
1 1 -2 -3 -3 -1 -0 1 2 2 -1 1 1 1 -1 -3 -5 -5 -1 -3 -6 -6 -0 -3 -5 -5 -2 3 7 7 4 -0 -3 -3 -2 -3 -0 3 6 1 -3 -4 -1 -0 -2 -2 2 4 4 2 2 2 0 -1 -2 -3 -4 -4 -5 -6 -5 -4 -2 1 3 4 3 3 3 3 3 3 2 1 -0 -0 -0 1 1 1 1 0 0 3 6 8
0 0 -2 -2 -2 -1 -0 3 3 2 -1 -0 -0 -1 -1 -3 -4 -4 -1 -4 -5 -4 -3 -3 -3 -3 -5 2 9 13 11 1 -5 -8 -4 -3 1 5 9 3 -3 -5 -2 0 -0 0 3 4 3 2 2 1 -0 -1 -3 -3 -4 -4 -4 -5 -5 -4 -2 -0 2 4 4 3 3 3 4 3 3 1 0 -1 -1 -0 1 1 0 0 1 3 6 7
-1 -0 -1 -1 -1 -1 1 3 3 2 1 0 -1 -2 -2 -2 -2 -3 -3 -4 -3 -3 -6 -4 -2 -1 -2 3 8 12 13 2 -7 -11 -6 -3 2 6 9 2 -3 -5 -2 1 1 1 2 2 2 2 2 0 -0 -1 -2 -3 -3 -3 -4 -4 -4 -4 -2 -1 1 2 3 2 2 3 4 4 3 2 0 -0 -1 -1 -0 -0 -0 0 1 3 5 6
-2 -0 1 -0 -1 0 2 3 3 3 2 0 -1 -1 -0 -1 -1 -1 -4 -3 -2 -1 -3 -3 -3 -2 1 2 5 8 9 -1 -7 -10 -5 -2 3 6 8 1 -4 -5 -2 1 2 2 2 1 1 2 2 1 1 -0 -2 -3 -4 -4 -4 -3 -3 -3 -3 -2 -1 -0 -0 0 2 3 5 5 4 2 1 -0 -0 -1 -1 -1 -1 0 2 3 3 4
-4 -2 2 1 -0 -1 -0 3 5 4 1 -1 -1 -0 -1 -2 -1 -0 -2 -1 0 -0 -2 -3 -3 -2 2 2 5 7 7 -1 -6 -7 -5 -1 3 6 7 1 -4 -6 -3 1 3 3 2 1 1 3 4 3 1 -1 -3 -4 -5 -4 -3 -3 -3 -2 -2 -2 -3 -3 -3 -2 -0 3 6 6 4 2 0 0 -0 -1 -2 -2 -2 -0 1 2 2 1
-5 -3 1 2 -1 -4 -3 2 5 5 2 0 -1 -1 -2 -2 -1 -0 -0 1 1 -0 -1 -1 -1 -0 1 3 5 7 7 1 -4 -6 -6 -1 3 6 7 1 -3 -5 -2 2 4 5 3 2 2 3 4 2 -0 -3 -4 -5 -5 -4 -3 -3 -2 -2 -2 -2 -3 -4 -5 -4 -2 1 5 5 3 1 -0 0 0 -1 -2 -2 -2 -1 0 0 -0 -1
-5 -3 1 2 0 -2 -3 0 3 4 3 1 -1 -3 -3 -2 -1 -1 0 1 0 -0 0 0 0 0 2 4 6 7 6 1 -4 -7 -7 -3 2 6 8 3 -1 -2 -0 3 5 5 3 2 2 2 1 -1 -2 -4 -4 -4 -4 -4 -3 -3 -2 -2 -2 -2 -3 -4 -4 -4 -2 0 3 3 1 -0 -1 -0 0 -0 -2 -2 -2 -1 -0 -1 -2 -3
-2 -2 0 2 2 0 -1 -0 1 3 4 2 -0 -2 -2 -1 -1 -1 1 1 1 0 0 1 1 3 4 4 5 5 4 -0 -5 -8 -7 -4 2 7 10 4 0 -1 0 3 4 3 1 1 0 -0 -1 -1 -2 -3 -3 -4 -4 -4 -3 -3 -2 -2 -2 -2 -2 -3 -3 -3 -2 -0 1 0 -1 -2 -2 -0 0 0 -0 -1 -1 -1 -1 -2 -3 -4
-0 -0 1 2 2 2 1 0 1 2 3 2 1 -0 -0 -1 -1 -0 1 1 1 1 0 1 3 5 6 5 4 4 3 -1 -4 -6 -6 -4 2 7 10 5 1 -1 1 3 3 2 0 -0 -1 -1 -0 -0 -1 -2 -3 -4 -4 -4 -3 -3 -3 -3 -2 -2 -3 -3 -3 -2 -1 -1 -1 -2 -2 -3 -2 -1 1 1 1 1 0 -0 -1 -2 -4 -5
-1 -0 0 2 2 2 1 1 1 2 2 1 1 1 1 0 0 0 1 1 1 0 -0 1 3 5 6 5 5 5 4 -1 -3 -5 -5 -3 1 6 9 4 0 -1 1 3 3 1 1 1 1 1 1 0 -2 -3 -4 -4 -4 -3 -3 -3 -3 -3 -3 -3 -3 -3 -3 -2 -2 -1 -2 -2 -3 -3 -2 -1 1 2 3 2 2 1 -0 -2 -4 -5
-2 -1 -1 0 1 2 1 1 2 2 2 1 1 0 1 0 1 1 2 1 0 -1 -1 0 2 4 5 5 6 6 4 0 -3 -5 -5 -3 1 6 8 3 -1 -1 2 3 3 2 2 3 3 3 2 -1 -3 -4 -4 -4 -3 -3 -3 -3 -3 -3 -3 -3 -3 -3 -3 -2 -2 -2 -2 -2 -2 -2 -2 -1 1 2 3 3 2 1 0 -1 -3 -4
-2 -2 -1 -0 0 1 1 2 2 2 2 1 0 0 -0 -0 1 2 3 2 1 -1 -1 -0 1 3 4 5 5 5 4 1 -2 -4 -5 -3 1 5 7 2 -1 -1 2 4 3 3 3 4 3 2 0 -2 -4 -4 -4 -4 -3 -3 -3 -3 -3 -3 -3 -3 -3 -3 -3 -2 -1 -1 -1 -1 -2 -2 -1 -1 0 1 2 2 2 1 -0 -2 -3 -4
-2 -2 -2 -1 -0 0 1 2 2 2 2 1 1 0 -0 -0 0 1 3 3 1 -0 -1 0 1 2 4 5 5 5 4 2 -1 -3 -4 -2 2 4 5 2 -0 -0 2 3 4 4 4 4 3 1 -0 -3 -4 -4 -4 -4 -4 -3 -3 -3 -3 -3 -3 -3 -3 -3 -2 -2 -1 -1 -0 -0 -0 -0 -0 -0 -0 0 1 1 1 0 -1 -1 -3 -4
-1 -1 -1 -1 -1 -0 1 1 2 2 2 1 1 0 0 -0 -0 1 2 2 1 0 -0 1 1 2 3 4 6 6 5 2 -0 -2 -3 -1 1 3 4 2 1 0 1 3 4 5 6 4 3 1 -0 -3 -3 -4 -5 -5 -4 -3 -3 -3 -3 -3 -3 -3 -3 -2 -2 -1 -0 0 1 1 1 0 -0 -1 -1 -1 -0 0 1 1 0 -0 -1 -2
2 1 -0 -1 -1 -1 -0 1 1 1 1 1 1 1 1 0 0 0 1 1 0 -0 -0 1 2 2 2 4 5 6 6 3 0 -2 -1 -0 1 2 3 3 2 1 0 2 4 5 5 3 2 1 -0 -2 -3 -4 -5 -5 -4 -3 -3 -3 -3 -3 -3 -3 -3 -2 -1 -0 1 1 2 2 1 0 -1 -1 -2 -1 -0 1 1 1 1 1 1 0
3 2 1 0 -0 -0 -0 0 0 1 1 1 1 1 1 1 0 0 0 0 -0 -1 -1 0 1 2 2 3 4 5 7 5 1 -1 -1 -0 1 2 3 2 1 1 -0 1 2 4 5 3 2 1 -0 -1 -3 -4 -6 -5 -4 -3 -2 -2 -2 -3 -4 -3 -2 -2 -1 0 1 2 2 1 0 -1 -2 -2 -2 -1 -0 1 1 1 1 1 1 1
3 2 2 1 1 0 -0 -0 0 0 1 1 1 1 1 1 1 1 0 0 -1 -1 -1 -1 0 1 1 2 3 4 6 5 3 0 -1 -0 1 2 2 2 2 1 -0 0 1 3 4 4 2 1 0 -1 -3 -5 -6 -5 -4 -3 -2 -2 -2 -4 -4 -3 -2 -1 -1 0 1 1 1 0 -1 -2 -2 -2 -2 -1 -0 0 0 0 -0 -0 0 -0
2 2 1 1 1 0 0 0 0 0 1 1 1 1 1 1 1 1 1 0 -1 -1 -2 -1 -0 1 1 2 3 3 4 4 3 1 -0 0 1 3 3 2 2 1 0 0 1 2 4 5 3 2 0 -2 -4 -5 -6 -5 -4 -2 -2 -1 -2 -4 -4 -3 -2 -1 -1 0 1 1 0 -1 -2 -2 -2 -1 -1 -0 -0 -0 -1 -1 -0 0 0 0
1 1 1 1 0 0 0 -0 0 0 1 1 1 1 1 1 1 1 1 -0 -1 -2 -2 -2 -1 0 1 2 3 3 4 3 3 2 1 1 2 3 3 2 2 1 0 0 1 2 4 4 4 2 0 -2 -3 -4 -5 -4 -3 -2 -1 -1 -2 -3 -4 -2 -2 -1 -1 -0 0 0 -1 -1 -1 -1 -0 0 1 0 -0 -1 -1 -0 2 3 4 5
1 1 0 0 0 0 0 0 0 0 1 1 1 1 1 1 1 0 0 -0 -1 -1 -2 -1 -1 0 1 2 2 3 3 3 2 2 1 1 2 3 3 3 2 1 1 1 1 1 3 4 3 2 0 -1 -2 -4 -5 -4 -3 -2 -1 -1 -2 -3 -3 -2 -2 -1 -1 -0 0 0 -0 0 1 1 2 2 2 1 0 -0 1 3 6 7 9 9
1 1 0 0 0 0 0 0 0 1 1 1 1 1 1 1 0 0 -0 -0 -0 -0 -0 -0 0 0 1 1 2 2 3 3 2 1 1 1 2 3 3 3 2 1 1 1 1 1 2 2 2 2 1 0 -2 -4 -5 -4 -3 -1 -1 -1 -2 -2 -3 -2 -2 -1 -1 -0 0 1 1 2 3 3 4 4 3 2 1 2 4 6 7 8 9 9
1 1 0 0 0 0 0 1 1 1 1 1 1 1 1 0 -0 -0 -0 -0 -0 0 0 0 0 1 1 1 1 1 2 2 2 1 1 1 2 2 3 3 2 2 1 1 1 1 1 2 2 2 2 1 -1 -3 -5 -4 -2 -1 -1 -2 -2 -2 -2 -2 -2 -2 -1 0 1 1 1 2 4 5 6 5 4 3 3 4 5 5 5 6 6 6
1 1 0 0 0 1 1 1 1 1 0 1 1 1 0 -0 -0 -0 -0 0 0 0 0 0 1 1 1 1 1 1 1 2 2 1 1 1 1 2 2 3 3 2 1 1 1 1 1 2 2 2 1 -0 -2 -3 -4 -3 -2 -2 -3 -2 -2 -2 -2 -2 -2 -1 -0 1 1 1 1 3 5 6 6 6 6 5 5 4 4 3 3 4 4 4
1 1 0 0 0 0 0 0 0 0 0 1 1 1 0 0 0 0 0 0 1 1 0 0 1 1 1 1 1 1 2 2 2 2 2 2 2 2 2 2 2 1 1 1 1 1 1 1 1 0 0 -0 -1 -2 -3 -2 -2 -2 -2 -2 -1 -1 -2 -2 -1 -0 0 1 2 2 2 4 6 7 7 7 7 6 5 4 4 3 4 4 4 4
1 1 0 0 -0 -0 -0 0 1 1 2 2 2 2 1 1 0 0 0 0 0 0 0 0 1 1 1 1 1 2 2 2 3 3 3 3 2 2 2 2 1 1 0 0 0 0 1 1 1 1 0 -0 -1 -1 -1 -1 -1 -2 -1 1 0 -0 -1 -0 0 1 0 1 1 2 4 5 6 7 7 7 7 6 4 4 3 3 4 5 5 5
1 1 0 0 1 1 2 3 3 4 4 3 3 2 1 -1 -1 -1 -1 -0 -1 -1 -0 1 1 1 1 1 2 2 2 3 3 3 3 3 2 2 2 1 1 0 -0 -0 0 0 1 1 1 1 1 1 -0 -0 -0 -1 -1 -0 1 1 -1 -2 -2 -0 0 0 -0 -1 -1 0 2 3 4 6 7 7 6 5 3 3 3 3 4 4 4 4
1 1 2 2 3 4 5 5 5 5 4 2 1 -1 -2 -2 -2 -1 -1 -1 -1 -1 -0 1 1 2 2 2 2 2 3 3 3 3 2 2 2 2 1 1 1 0 0 0 1 1 1 2 2 2 1 1 1 1 1 0 1 1 2 0 -1 -1 0 0 0 -1 -1 -2 -3 -2 -0 1 2 4 6 7 6 5 3 3 3 3 3 4 4 4
1 2 3 3 4 4 4 4 4 3 2 0 -1 -1 -1 -1 0 1 1 1 0 0 0 1 2 2 2 2 3 3 3 3 3 2 2 2 2 2 2 1 1 1 1 1 2 2 2 3 2 2 1 1 1 1 1 1 2 3 2 1 1 2 3 2 1 0 -1 -2 -2 -1 -0 0 1 3 5 5 5 4 3 2 2 2 2 3 4 4
2 2 1 1 1 1 0 0 0 0 0 0 1 1 2 2 2 3 2 2 2 1 1 1 1 2 2 2 3 3 3 3 3 2 2 2 2 2 2 2 1 1 2 2 2 2 3 3 2 2 1 1 1 1 1 1 2 1 1 0 0 -0 -2 -2 -1 0 -0 -1 -0 0 1 1 2 3 4 4 3 2 1 0 1 1 2 2 3 4
1 0 -0 -1 -2 -2 -3 -2 -2 -1 -0 1 2 3 4 4 4 4 3 3 2 2 2 1 1 1 1 2 3 3 3 3 3 3 3 2 2 2 2 1 1 1 1 1 1 1 2 2 2 2 1 -0 -1 -1 -0 0 0 -0 -1 -1 -1 -1 -3 -3 -2 -2 -2 -0 1 2 1 1 2 3 3 3 2 0 -1 -1 -0 1 2 3 3 3
-0 -1 -1 -2 -2 -2 -2 -2 -1 -1 -0 1 1 2 3 4 4 4 4 3 3 3 2 2 2 1 1 2 3 3 3 3 3 2 2 1 1 1 1 1 1 1 1 1 2 3 3 3 4 4 5 2 -1 -3 -3 -2 -2 -2 -2 -2 -2 -2 -2 -1 -2 -2 -2 -0 1 2 1 1 1 2 2 1 -0 -1 -2 -1 0 2 2 2 2 2
0 0 0 0 0 0 0 1 0 0 0 0 1 1 1 2 3 3 4 4 4 3 3 2 2 2 2 2 2 3 3 3 2 2 1 0 0 0 1 2 3 3 3 4 5 5 6 6 6 6 5 3 0 -2 -3 -3 -2 -2 -3 -3 -3 -3 -3 -3 -2 -2 -0 1 2 2 1 2 2 1 0 -0 -0 -0 0 1 2 2 2 2 2 2
-0 0 1 1 2 2 2 2 2 2 1 1 1 1 0 1 1 2 2 3 3 3 3 2 2 2 2 2 2 2 2 2 1 1 0 0 1 1 2 4 5 5 5 5 5 5 5 5 5 5 4 2 -0 -2 -4 -3 -2 -3 -3 -3 -3 -3 -2 -2 -1 0 2 2 2 1 1 1 1 0 -0 1 1 2 2 3 3 3 2 2 2 2
-1 -0 1 1 2 3 3 3 3 3 3 3 2 2 1 1 1 2 2 2 3 2 2 2 2 2 2 2 2 2 2 1 1 1 1 1 2 3 3 4 4 4 4 4 4 4 4 3 3 3 2 1 0 -1 -2 -2 -2 -2 -1 -1 -0 1 1 2 2 2 2 2 1 1 1 0 -1 -1 -0 2 2 2 3 3 3 3 3 2 2 3
-1 -0 0 1 1 2 2 2 3 3 3 4 4 3 3 2 2 2 2 2 2 2 1 1 1 1 1 1 1 1 1 1 1 1 2 2 2 3 3 2 2 2 2 2 2 2 2 2 2 2 2 2 2 2 2 2 2 2 3 4 4 5 5 5 4 4 3 2 2 1 1 1 1 1 2 3 3 3 3 4 4 4 3 4 4 4
-0 0 1 1 1 2 2 3 3 3 3 3 3 3 3 3 2 2 2 2 1 1 1 1 1 1 1 1 0 0 0 0 1 1 2 2 2 2 1 1 1 1 1 1 0 0 0 1 1 2 3 4 4 4 4 5 6 7 8 7 7 7 7 6 5 4 4 3 3 3 3 3 3 4 5 4 4 4 5 5 4 4 4 4 5 5
Height
5406 5406 5407 5408 5408 5408 5407 5408 5408 5407 5405 5406 5406 5406 5405 5405 5405 5405 5405 5405 5406 5406 5406 5407 5408 5408 5409 5410 5410 5411 5411 5411 5410 5410 5409 5409 5409 5410 5410 5410 5410 5410 5410 5411 5411 5413 5414 5415 5417 5418 5420 5422 5423 5425 5426 5427 5429 5431 5432 5433 5434 5437 5439 5441 5443 5445 5448 5450 5452 5453 5456 5458 5460 5463 5465 5467 5469 5472 5474 5476 5478 5480 5481 5484 5487 5491
5399 5399 5400 5401 5401 5401 5400 5401 5402 5401 5399 5399 5399 5400 5399 5399 5399 5399 5399 5399 5399 5399 5400 5400 5401 5402 5403 5403 5404 5405 5405 5405 5405 5404 5404 5403 5403 5403 5403 5403 5403 5403 5404 5404 5405 5406 5407 5408 5409 5411 5412 5414 5416 5418 5419 5421 5422 5424 5425 5427 5428 5429 5432 5434 5436 5438 5441 5443 5445 5448 5449 5452 5454 5457 5459 5461 5463 5465 5468 5470 5472 5474 5476 5478 5482 5486
5393 5392 5393 5393 5394 5394 5393 5394 5394 5394 5393 5392 5392 5393 5393 5392 5392 5392 5393 5393 5393 5393 5393 5393 5393 5394 5395 5396 5397 5398 5398 5398 5398 5398 5398 5397 5397 5396 5396 5397 5397 5397 5398 5398 5398 5399 5400 5401 5402 5403 5405 5406 5408 5410 5412 5413 5415 5417 5419 5421 5422 5423 5425 5427 5429 5432 5434 5436 5439 5441 5443 5446 5448 5451 5453 5456 5458 5460 5462 5464 5466 5468 5471 5473 5475 5479
5385 5384 5384 5385 5386 5386 5386 5386 5386 5386 5386 5385 5384 5385 5385 5385 5385 5385 5386 5386 5386 5386 5386 5386 5386 5387 5387 5388 5389 5390 5390 5391 5391 5391 5392 5391 5390 5390 5389 5390 5390 5391 5391 5391 5392 5392 5393 5394 5395 5396 5398 5399 5401 5403 5405 5406 5408 5410 5412 5414 5416 5418 5419 5421 5423 5425 5428 5430 5432 5435 5437 5440 5443 5445 5447 5450 5452 5454 5457 5459 5461 5463 5465 5467 5469 5472
5377 5377 5376 5377 5378 5378 5378 5379 5378 5378 5378 5378 5377 5377 5378 5378 5378 5378 5378 5379 5379 5378 5378 5379 5379 5379 5379 5379 5380 5381 5382 5382 5383 5383 5384 5384 5384 5383 5383 5383 5383 5384 5384 5385 5385 5386 5387 5388 5388 5389 5391 5392 5393 5395 5397 5398 5401 5403 5405 5407 5409 5411 5413 5416 5418 5419 5422 5424 5426 5428 5431 5433 5436 5439 5442 5444 5447 5449 5451 5454 5456 5458 5460 5462 5463 5466
5368 5369 5368 5368 5368 5369 5370 5371 5371 5370 5370 5369 5370 5370 5370 5370 5370 5370 5371 5371 5371 5371 5371 5371 5371 5372 5372 5372 5372 5373 5373 5373 5373 5374 5375 5376 5376 5376 5376 5376 5376 5376 5377 5378 5378 5379 5380 5381 5382 5383 5384 5385 5386 5388 5389 5391 5393 5396 5398 5400 5402 5405 5407 5410 5412 5414 5416 5418 5420 5423 5425 5428 5430 5433 5436 5438 5441 5443 5446 5448 5451 5453 5455 5457 5458 5461
5358 5360 5361 5360 5359 5360 5361 5362 5363 5363 5362 5361 5361 5362 5362 5362 5363 5363 5363 5363 5363 5363 5363 5363 5363 5364 5364 5364 5364 5364 5365 5365 5365 5365 5366 5367 5368 5368 5369 5369 5369 5369 5369 5370 5371 5372 5373 5374 5375 5376 5377 5378 5379 5381 5383 5384 5387 5389 5391 5393 5396 5398 5401 5403 5406 5408 5410 5412 5415 5417 5419 5422 5424 5427 5429 5432 5435 5438 5440 5443 5445 5448 5450 5452 5454 5456
5348 5350 5351 5352 5351 5351 5352 5353 5354 5354 5354 5353 5353 5353 5354 5355 5355 5355 5355 5355 5355 5355 5355 5355 5355 5356 5357 5357 5357 5357 5356 5357 5357 5357 5357 5358 5358 5359 5360 5361 5362 5362 5362 5363 5364 5365 5366 5367 5368 5369 5370 5372 5373 5374 5376 5378 5380 5383 5385 5387 5389 5392 5394 5397 5399 5402 5404 5407 5409 5412 5414 5416 5419 5421 5424 5427 5429 5432 5434 5437 5439 5442 5444 5447 5449 5451
5338 5339 5341 5342 5343 5342 5342 5344 5346 5346 5346 5344 5343 5344 5344 5346 5347 5348 5348 5348 5348 5348 5347 5347 5347 5348 5349 5349 5349 5349 5348 5348 5348 5348 5348 5349 5349 5350 5351 5353 5353 5354 5355 5355 5356 5357 5358 5360 5361 5362 5364 5365 5367 5368 5370 5372 5374 5376 5378 5381 5383 5385 5388 5391 5393 5396 5399 5401 5403 5406 5408 5411 5413 5416 5418 5421 5424 5426 5429 5432 5434 5436 5438 5441 5444 5446
5330 5330 5331 5332 5333 5334 5333 5333 5335 5337 5338 5336 5336 5336 5336 5337 5337 5338 5339 5340 5340 5341 5340 5339 5338 5338 5340 5341 5341 5341 5340 5340 5340 5340 5340 5340 5340 5341 5342 5343 5344 5346 5347 5348 5349 5350 5351 5353 5354 5355 5357 5358 5360 5363 5364 5367 5368 5370 5373 5375 5377 5379 5382 5384 5387 5390 5393 5395 5398 5400 5403 5405 5408 5410 5413 5415 5418 5421 5424 5426 5429 5431 5434 5436 5439 5441
5320 5320 5321 5322 5323 5323 5324 5324 5325 5327 5328 5328 5328 5328 5329 5329 5328 5328 5328 5329 5331 5332 5332 5331 5331 5330 5330 5331 5332 5333 5332 5331 5331 5331 5331 5331 5331 5332 5333 5334 5335 5337 5338 5340 5341 5343 5344 5346 5347 5348 5350 5352 5354 5356 5358 5361 5363 5365 5367 5369 5371 5373 5375 5378 5381 5384 5387 5390 5393 5395 5398 5400 5402 5404 5407 5410 5413 5416 5418 5421 5423 5426 5428 5431 5434 5437
5310 5310 5311 5311 5312 5313 5313 5314 5315 5317 5318 5318 5319 5319 5320 5321 5321 5319 5317 5318 5320 5322 5322 5322 5323 5323 5323 5322 5323 5323 5323 5323 5322 5322 5323 5323 5323 5324 5324 5325 5326 5328 5329 5331 5333 5335 5337 5339 5340 5342 5344 5346 5348 5350 5353 5355 5357 5359 5360 5362 5364 5367 5369 5372 5375 5378 5382 5385 5387 5390 5392 5394 5397 5399 5401 5404 5407 5410 5413 5415 5418 5421 5423 5426 5428 5431
5301 5301 5300 5301 5301 5302 5303 5304 5305 5307 5308 5309 5310 5310 5310 5312 5312 5311 5309 5308 5310 5311 5312 5312 5313 5314 5315 5314 5314 5314 5314 5313 5313 5314 5314 5315 5315 5316 5316 5317 5318 5319 5321 5323 5325 5328 5330 5332 5333 5336 5338 5341 5343 5345 5347 5349 5350 5352 5354 5356 5358 5361 5363 5366 5369 5373 5376 5379 5382 5385 5387 5389 5391 5393 5396 5399 5402 5405 5408 5410 5413 5415 5418 5420 5423 5425
5291 5291 5291 5291 5292 5293 5293 5294 5295 5297 5299 5300 5301 5301 5300 5301 5302 5301 5300 5300 5301 5302 5303 5302 5303 5304 5306 5306 5306 5305 5304 5304 5304 5305 5306 5307 5308 5308 5308 5308 5309 5311 5312 5314 5317 5319 5322 5325 5328 5330 5333 5335 5337 5339 5341 5342 5344 5346 5348 5349 5352 5355 5358 5361 5364 5367 5370 5374 5377 5380 5382 5384 5386 5388 5391 5393 5396 5399 5402 5405 5407 5410 5412 5414 5417 5419
5283 5282 5282 5282 5282 5283 5284 5285 5286 5288 5289 5291 5291 5291 5291 5291 5292 5292 5292 5292 5293 5293 5293 5293 5293 5295 5296 5297 5297 5297 5296 5296 5296 5297 5298 5299 5300 5301 5302 5301 5302 5303 5304 5306 5308 5311 5315 5318 5321 5324 5327 5329 5331 5333 5334 5336 5338 5339 5342 5344 5347 5350 5353 5356 5358 5362 5365 5368 5372 5374 5377 5379 5381 5383 5386 5388 5391 5394 5397 5399 5402 5404 5407 5409 5411 5414
5275 5274 5273 5273 5273 5274 5275 5277 5278 5279 5280 5281 5281 5281 5282 5282 5283 5283 5283 5283 5284 5284 5285 5285 5285 5286 5288 5289 5290 5290 5289 5289 5289 5289 5290 5291 5293 5295 5295 5295 5294 5295 5297 5299 5301 5304 5308 5312 5315 5318 5320 5323 5325 5326 5328 5330 5332 5334 5337 5339 5342 5345 5347 5350 5353 5356 5359 5363 5366 5369 5371 5374 5376 5378 5381 5383 5386 5388 5391 5394 5397 5399 5401 5403 5406 5409
5267 5266 5265 5265 5265 5266 5268 5269 5270 5270 5270 5271 5272 5273 5273 5273 5274 5275 5275 5275 5276 5276 5277 5278 5278 5279 5279 5282 5283 5283 5282 5281 5280 5281 5283 5284 5287 5289 5289 5288 5288 5288 5291 5293 5295 5298 5302 5305 5308 5312 5314 5317 5318 5320 5322 5324 5327 5329 5332 5334 5337 5339 5342 5344 5347 5350 5353 5357 5361 5363 5366 5368 5371 5373 5376 5378 5380 5383 5386 5388 5391 5394 5396 5398 5401 5403
5260 5259 5258 5258 5258 5260 5261 5261 5262 5262 5262 5263 5263 5264 5265 5266 5266 5267 5267 5268 5269 5269 5270 5271 5271 5272 5273 5273 5276 5277 5275 5273 5273 5274 5277 5278 5281 5283 5283 5282 5281 5282 5284 5287 5289 5292 5295 5299 5302 5305 5308 5311 5313 5315 5317 5319 5321 5324 5327 5329 5332 5335 5337 5339 5342 5345 5348 5352 5355 5358 5361 5363 5366 5368 5371 5373 5375 5378 5381 5383 5386 5388 5391 5393 5396 5398
5253 5253 5253 5253 5253 5253 5253 5254 5254 5255 5255 5255 5256 5257 5258 5258 5259 5259 5260 5261 5263 5263 5263 5263 5263 5264 5266 5267 5268 5270 5269 5267 5267 5268 5271 5273 5275 5277 5277 5276 5275 5276 5278 5281 5283 5286 5289 5293 5296 5300 5303 5305 5307 5309 5311 5313 5316 5318 5321 5324 5327 5330 5333 5335 5338 5341 5344 5347 5350 5353 5356 5358 5361 5363 5366 5368 5370 5373 5376 5378 5381 5383 5386 5388 5390 5393
5248 5248 5248 5248 5246 5246 5246 5248 5249 5248 5248 5248 5249 5250 5250 5251 5253 5254 5255 5255 5256 5256 5256 5256 5257 5258 5259 5261 5262 5263 5263 5262 5262 5263 5265 5268 5269 5271 5271 5270 5270 5271 5273 5275 5278 5281 5284 5288 5291 5294 5298 5300 5302 5304 5306 5308 5310 5313 5317 5320 5323 5326 5329 5332 5334 5338 5340 5343 5346 5348 5350 5353 5356 5358 5361 5363 5366 5368 5371 5374 5376 5378 5381 5383 5385 5388
5243 5243 5243 5242 5241 5240 5240 5242 5243 5243 5243 5242 5243 5243 5244 5246 5247 5248 5248 5249 5249 5249 5250 5251 5252 5253 5254 5255 5257 5258 5258 5257 5257 5258 5260 5262 5264 5265 5266 5265 5265 5266 5268 5271 5274 5277 5279 5283 5286 5289 5292 5294 5296 5298 5300 5303 5306 5309 5312 5315 5318 5321 5324 5328 5331 5334 5337 5340 5342 5344 5346 5348 5351 5353 5356 5358 5361 5364 5367 5369 5372 5374 5376 5378 5381 5384
5240 5238 5238 5238 5237 5235 5235 5236 5237 5238 5238 5238 5238 5239 5239 5240 5241 5242 5242 5243 5244 5244 5245 5246 5247 5248 5249 5250 5252 5253 5253 5252 5252 5253 5255 5257 5258 5260 5262 5261 5261 5262 5264 5267 5269 5272 5275 5278 5281 5284 5286 5288 5291 5293 5296 5298 5302 5304 5308 5311 5314 5317 5320 5323 5327 5330 5333 5336 5338 5340 5342 5343 5346 5349 5351 5354 5357 5359 5362 5365 5367 5370 5372 5374 5377 5379
5237 5235 5235 5234 5233 5232 5232 5232 5233 5233 5233 5234 5234 5234 5234 5234 5235 5236 5237 5239 5239 5240 5241 5242 5243 5244 5245 5246 5247 5248 5248 5248 5248 5249 5251 5253 5255 5256 5258 5257 5257 5258 5260 5262 5265 5268 5270 5273 5276 5278 5281 5283 5286 5289 5291 5294 5297 5300 5304 5307 5310 5313 5316 5319 5322 5325 5328 5331 5334 5336 5338 5340 5342 5344 5347 5349 5352 5355 5358 5361 5363 5365 5368 5370 5373 5376
5235 5233 5232 5231 5230 5229 5228 5228 5229 5229 5230 5230 5230 5230 5230 5230 5231 5232 5234 5235 5235 5236 5236 5238 5239 5240 5241 5242 5243 5243 5243 5243 5244 5246 5247 5248 5249 5252 5253 5253 5253 5253 5256 5258 5260 5263 5265 5268 5271 5274 5277 5279 5282 5285 5287 5290 5293 5297 5300 5303 5306 5309 5312 5315 5318 5321 5324 5327 5329 5332 5334 5336 5338 5340 5343 5345 5348 5351 5353 5356 5359 5361 5363 5366 5369 5372
5232 5230 5229 5228 5227 5226 5226 5226 5226 5227 5227 5227 5226 5226 5226 5227 5228 5228 5230 5230 5231 5232 5232 5233 5235 5236 5237 5238 5239 5239 5240 5240 5240 5240 5241 5243 5245 5247 5248 5248 5249 5250 5253 5255 5257 5259 5262 5265 5268 5271 5273 5276 5278 5281 5283 5287 5290 5293 5296 5299 5302 5305 5308 5311 5314 5317 5320 5323 5325 5328 5330 5332 5334 5337 5339 5341 5344 5346 5349 5352 5354 5357 5359 5362 5365 5368
5229 5227 5226 5225 5224 5223 5223 5223 5223 5224 5223 5223 5223 5223 5223 5223 5225 5226 5227 5227 5227 5228 5228 5229 5231 5232 5233 5234 5235 5236 5237 5236 5237 5237 5238 5239 5241 5243 5245 5245 5245 5247 5249 5251 5253 5256 5258 5261 5264 5267 5269 5272 5274 5277 5280 5283 5286 5289 5293 5296 5298 5301 5304 5307 5310 5313 5316 5318 5321 5324 5326 5328 5331 5333 5335 5338 5340 5342 5345 5348 5350 5353 5355 5358 5361 5364
5226 5225 5223 5222 5221 5221 5220 5221 5221 5220 5220 5220 5219 5219 5220 5221 5222 5223 5223 5224 5223 5224 5225 5225 5227 5228 5229 5231 5232 5233 5233 5233 5233 5233 5234 5235 5237 5239 5241 5241 5242 5243 5246 5248 5250 5253 5255 5258 5261 5263 5266 5268 5271 5273 5277 5280 5283 5286 5289 5292 5295 5298 5300 5303 5306 5309 5312 5315 5318 5320 5323 5325 5327 5329 5332 5334 5336 5338 5341 5344 5347 5349 5352 5355 5358 5361
5224 5222 5221 5220 5219 5218 5218 5218 5218 5218 5218 5217 5217 5217 5218 5218 5219 5220 5220 5221 5221 5221 5222 5223 5223 5225 5226 5228 5229 5230 5231 5231 5230 5230 5231 5232 5234 5236 5238 5238 5240 5241 5243 5245 5248 5250 5253 5255 5258 5260 5263 5265 5268 5270 5273 5276 5279 5282 5285 5288 5291 5294 5297 5300 5303 5305 5308 5311 5314 5316 5319 5321 5323 5326 5328 5330 5333 5335 5338 5341 5343 5346 5349 5352 5355 5358
5222 5220 5218 5217 5216 5216 5215 5215 5215 5215 5215 5215 5215 5215 5215 5216 5217 5217 5217 5218 5218 5218 5219 5220 5221 5222 5223 5225 5226 5228 5228 5228 5228 5228 5228 5230 5232 5233 5235 5236 5238 5239 5240 5243 5245 5247 5250 5252 5255 5257 5259 5262 5265 5268 5270 5273 5276 5279 5282 5285 5288 5290 5293 5296 5299 5302 5304 5307 5310 5313 5315 5318 5320 5322 5324 5327 5329 5332 5334 5337 5340 5343 5346 5348 5351 5354
5220 5218 5217 5215 5214 5213 5213 5213 5213 5213 5213 5213 5213 5213 5213 5214 5214 5214 5214 5215 5216 5216 5216 5217 5218 5219 5221 5222 5224 5225 5226 5226 5225 5225 5226 5228 5229 5231 5233 5233 5235 5236 5238 5240 5243 5245 5247 5249 5252 5254 5257 5259 5262 5265 5267 5270 5273 5276 5279 5282 5284 5287 5290 5293 5295 5298 5301 5304 5307 5309 5312 5314 5316 5319 5321 5323 5326 5329 5331 5334 5337 5339 5342 5345 5348 5351
5219 5217 5215 5214 5213 5212 5211 5211 5211 5211 5211 5211 5211 5211 5211 5211 5212 5212 5212 5213 5214 5214 5214 5215 5216 5217 5218 5220 5222 5223 5224 5224 5223 5223 5223 5225 5227 5229 5230 5231 5233 5234 5236 5238 5241 5243 5245 5247 5249 5252 5254 5257 5259 5262 5264 5267 5270 5273 5276 5279 5282 5285 5287 5290 5292 5295 5298 5301 5303 5306 5308 5311 5313 5316 5318 5320 5323 5326 5328 5331 5333 5336 5339 5342 5345 5348
5217 5215 5214 5212 5211 5210 5210 5209 5209 5209 5209 5209 5209 5209 5209 5209 5210 5210 5211 5211 5212 5212 5212 5213 5214 5215 5216 5218 5219 5221 5221 5221 5221 5221 5222 5224 5225 5227 5228 5229 5231 5232 5234 5236 5238 5241 5243 5245 5247 5249 5251 5253 5256 5259 5262 5264 5268 5270 5273 5276 5279 5282 5285 5287 5290 5292 5295 5298 5301 5303 5306 5308 5311 5313 5315 5318 5320 5323 5325 5328 5330 5333 5336 5339 5342 5344
5215 5213 5212 5210 5209 5209 5208 5208 5207 5207 5207 5207 5208 5208 5208 5208 5208 5209 5209 5210 5210 5211 5211 5211 5212 5213 5214 5215 5217 5218 5219 5219 5220 5220 5221 5223 5224 5225 5227 5228 5229 5230 5232 5233 5236 5238 5241 5243 5245 5246 5248 5251 5253 5256 5259 5262 5265 5268 5271 5274 5277 5279 5282 5284 5287 5289 5292 5295 5298 5301 5303 5306 5308 5310 5313 5315 5317 5320 5322 5325 5328 5331 5333 5336 5338 5340
5213 5211 5210 5209 5208 5207 5206 5206 5206 5206 5206 5206 5206 5206 5206 5207 5208 5208 5208 5209 5209 5210 5210 5210 5210 5211 5213 5214 5215 5216 5217 5218 5218 5219 5220 5221 5223 5224 5225 5226 5228 5229 5230 5232 5234 5236 5238 5241 5243 5244 5246 5248 5251 5254 5257 5260 5263 5266 5269 5272 5274 5277 5279 5282 5284 5287 5289 5292 5295 5298 5301 5303 5306 5308 5310 5313 5315 5318 5320 5323 5326 5328 5331 5333 5335 5337
5211 5209 5208 5207 5206 5205 5205 5204 5204 5204 5204 5204 5205 5205 5205 5206 5206 5207 5207 5207 5208 5208 5209 5209 5209 5210 5211 5212 5213 5214 5215 5216 5217 5218 5219 5220 5221 5223 5223 5225 5226 5227 5228 5230 5232 5234 5236 5238 5241 5243 5244 5247 5249 5252 5254 5258 5260 5263 5266 5269 5272 5274 5277 5279 5282 5284 5287 5290 5293 5295 5298 5300 5303 5305 5308 5311 5313 5316 5318 5321 5323 5326 5328 5330 5332 5334
5209 5208 5206 5205 5205 5204 5204 5203 5203 5203 5203 5203 5204 5204 5204 5205 5205 5205 5206 5206 5207 5207 5208 5208 5208 5209 5210 5211 5212 5213 5213 5215 5216 5217 5218 5219 5220 5221 5223 5223 5224 5226 5227 5229 5231 5233 5235 5237 5238 5241 5243 5245 5247 5250 5252 5255 5258 5261 5264 5267 5270 5273 5275 5277 5279 5282 5285 5287 5290 5293 5295 5298 5300 5303 5307 5309 5312 5314 5316 5318 5321 5323 5324 5326 5328 5331
5207 5206 5205 5204 5204 5203 5203 5203 5203 5203 5203 5203 5203 5204 5204 5204 5204 5204 5205 5205 5205 5206 5206 5207 5208 5208 5209 5210 5211 5212 5212 5213 5214 5215 5216 5218 5219 5220 5221 5222 5223 5225 5226 5228 5229 5231 5233 5235 5237 5239 5241 5243 5246 5248 5250 5253 5256 5259 5262 5265 5268 5270 5273 5275 5278 5280 5283 5285 5288 5290 5293 5296 5299 5302 5305 5307 5309 5311 5313 5315 5317 5318 5320 5323 5325 5327
5206 5205 5204 5203 5203 5203 5203 5203 5203 5203 5203 5203 5203 5203 5203 5203 5204 5204 5204 5204 5205 5205 5206 5206 5207 5208 5208 5209 5210 5210 5211 5212 5213 5214 5215 5216 5218 5219 5220 5221 5223 5223 5225 5226 5228 5229 5231 5233 5236 5238 5240 5242 5244 5246 5248 5251 5254 5257 5260 5263 5266 5268 5271 5273 5276 5278 5281 5283 5286 5288 5291 5293 5297 5299 5302 5304 5306 5308 5309 5311 5313 5315 5317 5319 5322 5324
5205 5204 5204 5203 5203 5203 5203 5203 5203 5203 5203 5203 5203 5203 5203 5203 5203 5203 5204 5204 5204 5205 5205 5206 5206 5207 5208 5208 5209 5210 5211 5212 5212 5213 5214 5215 5217 5218 5219 5220 5221 5223 5224 5225 5227 5228 5230 5232 5234 5236 5238 5240 5242 5244 5247 5249 5252 5255 5258 5261 5263 5266 5269 5271 5274 5276 5279 5281 5284 5286 5289 5292 5294 5296 5298 5301 5303 5304 5306 5308 5310 5312 5314 5317 5319 5321
5205 5204 5204 5203 5203 5203 5203 5204 5204 5204 5204 5204 5204 5203 5203 5203 5203 5203 5203 5203 5204 5204 5205 5205 5206 5207 5207 5208 5208 5209 5210 5211 5212 5213 5214 5215 5216 5218 5219 5220 5221 5222 5223 5224 5225 5227 5229 5230 5232 5234 5236 5238 5241 5243 5245 5248 5250 5253 5256 5258 5261 5264 5267 5269 5272 5274 5277 5279 5282 5284 5287 5289 5291 5294 5296 5298 5300 5302 5304 5306 5308 5310 5312 5314 5317 5319
5205 5205 5204 5204 5204 5205 5205 5205 5205 5205 5205 5204 5204 5204 5203 5203 5203 5203 5203 5203 5204 5204 5204 5205 5206 5207 5207 5208 5208 5209 5210 5211 5211 5213 5213 5215 5216 5217 5218 5219 5220 5221 5222 5223 5224 5226 5228 5229 5231 5233 5235 5237 5239 5241 5244 5246 5249 5251 5254 5256 5259 5262 5264 5267 5270 5272 5275 5278 5280 5282 5284 5287 5289 5292 5294 5296 5298 5299 5301 5303 5306 5308 5310 5312 5314 5316
5206 5206 5206 5206 5206 5206 5206 5206 5205 5205 5205 5204 5204 5203 5203 5203 5203 5203 5203 5203 5203 5204 5204 5205 5206 5206 5207 5208 5208 5209 5209 5210 5211 5212 5213 5214 5215 5216 5217 5218 5219 5220 5221 5222 5224 5225 5227 5229 5231 5232 5234 5236 5238 5240 5243 5245 5247 5250 5252 5255 5257 5260 5263 5265 5268 5271 5273 5276 5278 5281 5283 5284 5287 5289 5292 5294 5296 5297 5299 5301 5303 5305 5308 5310 5312 5313
5207 5206 5206 5206 5206 5206 5205 5205 5205 5205 5204 5204 5203 5203 5203 5203 5203 5203 5203 5203 5204 5204 5204 5205 5205 5206 5206 5207 5208 5208 5209 5210 5211 5212 5213 5213 5214 5215 5217 5218 5218 5220 5221 5222 5224 5225 5227 5229 5231 5232 5234 5236 5238 5239 5241 5243 5246 5248 5251 5253 5256 5258 5261 5263 5266 5269 5271 5274 5276 5278 5281 5283 5285 5287 5289 5291 5293 5295 5297 5299 5301 5303 5305 5307 5309 5311
5207 5207 5206 5206 5205 5205 5204 5204 5204 5204 5204 5203 5203 5203 5203 5203 5203 5203 5203 5203 5203 5204 5204 5204 5204 5205 5205 5206 5207 5208 5209 5210 5210 5211 5212 5213 5214 5215 5216 5218 5219 5220 5222 5223 5224 5226 5228 5229 5231 5233 5234 5236 5237 5239 5241 5243 5245 5247 5250 5252 5254 5256 5259 5261 5264 5267 5269 5272 5275 5277 5279 5281 5283 5285 5287 5289 5291 5293 5294 5296 5298 5300 5303 5304 5306 5308
5207 5207 5206 5205 5205 5204 5204 5203 5203 5203 5203 5203 5203 5203 5203 5203 5203 5203 5203 5203 5203 5203 5203 5204 5204 5204 5205 5206 5207 5208 5208 5209 5210 5211 5212 5213 5214 5215 5216 5218 5219 5221 5223 5224 5225 5227 5228 5230 5231 5233 5235 5236 5238 5239 5240 5242 5244 5246 5248 5251 5253 5256 5258 5261 5263 5265 5268 5270 5273 5275 5277 5278 5280 5282 5284 5286 5288 5290 5292 5294 5296 5298 5300 5302 5303 5305
5207 5207 5206 5206 5205 5205 5204 5204 5203 5203 5203 5203 5203 5203 5203 5203 5203 5203 5203 5203 5203 5203 5203 5203 5203 5204 5204 5205 5206 5207 5208 5209 5210 5211 5212 5213 5214 5216 5217 5219 5220 5222 5223 5225 5227 5228 5229 5230 5232 5233 5234 5236 5237 5238 5239 5241 5243 5245 5248 5250 5253 5255 5258 5260 5262 5264 5266 5268 5271 5273 5275 5276 5278 5280 5282 5284 5286 5288 5290 5292 5294 5296 5298 5299 5301 5302
5208 5207 5207 5206 5206 5205 5205 5204 5204 5203 5203 5203 5203 5203 5202 5202 5202 5202 5202 5203 5203 5203 5203 5203 5203 5204 5204 5205 5206 5207 5208 5209 5210 5211 5212 5214 5215 5217 5218 5220 5221 5223 5224 5225 5227 5228 5229 5230 5231 5232 5233 5234 5236 5237 5238 5240 5242 5245 5247 5249 5252 5254 5256 5258 5260 5263 5265 5267 5269 5271 5273 5274 5276 5278 5279 5281 5283 5285 5287 5289 5291 5293 5294 5296 5298 5300
5208 5207 5207 5206 5206 5205 5205 5204 5204 5203 5203 5203 5203 5202 5202 5202 5202 5202 5202 5202 5202 5202 5202 5203 5203 5204 5205 5206 5207 5208 5208 5209 5210 5212 5213 5214 5216 5217 5219 5220 5221 5223 5223 5224 5225 5226 5227 5228 5228 5230 5231 5232 5234 5236 5237 5239 5241 5243 5246 5248 5250 5252 5254 5257 5259 5262 5264 5265 5267 5269 5270 5272 5273 5275 5277 5279 5281 5283 5284 5287 5288 5290 5292 5293 5295 5297
5208 5207 5207 5206 5206 5205 5205 5204 5204 5203 5203 5203 5203 5202 5202 5201 5201 5201 5201 5201 5201 5202 5202 5203 5203 5204 5205 5206 5207 5208 5209 5210 5211 5213 5214 5215 5216 5218 5219 5220 5221 5221 5222 5223 5223 5224 5225 5226 5227 5228 5230 5231 5233 5234 5236 5238 5240 5243 5245 5247 5249 5251 5253 5256 5258 5260 5262 5263 5265 5267 5268 5270 5271 5273 5274 5276 5278 5280 5282 5283 5286 5288 5289 5291 5293 5294
5208 5207 5207 5206 5205 5205 5204 5203 5203 5203 5202 5202 5202 5201 5201 5201 5201 5201 5201 5201 5201 5202 5202 5203 5204 5205 5206 5207 5208 5209 5210 5211 5212 5213 5214 5215 5217 5218 5218 5219 5219 5220 5220 5221 5222 5223 5223 5225 5226 5227 5229 5230 5232 5234 5236 5238 5240 5242 5244 5246 5248 5250 5252 5254 5256 5258 5260 5262 5263 5265 5266 5268 5269 5271 5272 5274 5275 5277 5279 5281 5283 5285 5287 5288 5290 5292
5208 5207 5206 5205 5205 5204 5203 5203 5202 5202 5201 5201 5201 5200 5200 5200 5200 5200 5201 5201 5202 5202 5203 5203 5204 5205 5207 5208 5208 5209 5211 5212 5213 5214 5215 5216 5217 5217 5218 5218 5218 5219 5220 5220 5221 5222 5223 5224 5225 5227 5228 5230 5232 5233 5235 5237 5239 5241 5243 5245 5247 5249 5251 5253 5254 5256 5258 5259 5261 5262 5264 5265 5267 5268 5270 5271 5273 5275 5277 5278 5280 5282 5284 5286 5288 5290